This is the latest recevied weather packets stored in our database for station/object BM2MWA-13. If no packets are shown the sender has not sent any weather packets the latest 10 day(s).
| Time | Temp. | Humidity | Pressure | Rain* | Wind** | Luminosity | Snow |
|---|---|---|---|---|---|---|---|
| 1787545624 | 28.33° C | 82% | 999.7 hPa | 0.51 mm | - | - | - |
| 1787545024 | 27.78° C | 83% | 999.8 hPa | 0.51 mm | - | - | - |
| 1787544424 | 28.33° C | 82% | 999.9 hPa | 0.51 mm | - | - | - |
| 1787543823 | 28.33° C | 81% | 999.9 hPa | 0.51 mm | - | - | - |
| 1787543224 | 28.33° C | 79% | 1000.1 hPa | 0 mm | - | - | - |
| 1787542624 | 28.33° C | 78% | 1000.1 hPa | 0 mm | - | - | - |
| 1787542024 | 28.89° C | 76% | 1000 hPa | 0 mm | - | - | - |
| 1787541424 | 28.89° C | 75% | 999.9 hPa | 0 mm | - | - | - |
| 1787540823 | 28.89° C | 74% | 999.9 hPa | 0 mm | - | - | - |
| 1787540223 | 28.89° C | 74% | 999.7 hPa | 0 mm | - | - | - |
| 1787539624 | 29.44° C | 72% | 999.7 hPa | 0 mm | - | - | - |
| 1787539023 | 30° C | 71% | 999.6 hPa | 0 mm | - | - | - |
| 1787538423 | 30° C | 70% | 999.6 hPa | 0 mm | - | - | - |
| 1787537824 | 30° C | 69% | 999.5 hPa | 0 mm | - | - | - |
| 1787537223 | 30.56° C | 70% | 999.3 hPa | 0 mm | - | - | - |
| 1787536623 | 30° C | 70% | 999.4 hPa | 0 mm | - | - | - |
| 1787536024 | 29.44° C | 71% | 999.4 hPa | 0 mm | - | - | - |
| 1787535424 | 29.44° C | 70% | 999.5 hPa | 0 mm | - | - | - |
| 1787534824 | 29.44° C | 68% | 999.3 hPa | 0 mm | - | - | - |
| 1787534224 | 29.44° C | 70% | 999.1 hPa | 0 mm | - | - | - |
| 1787533623 | 29.44° C | 69% | 999 hPa | 0 mm | - | - | - |
| 1787533024 | 29.44° C | 70% | 998.9 hPa | 0 mm | - | - | - |
| 1787532423 | 29.44° C | 69% | 998.9 hPa | 0 mm | - | - | - |
| 1787531825 | 29.44° C | 68% | 998.7 hPa | 0 mm | - | - | - |
| 1787531226 | 29.44° C | 68% | 998.7 hPa | 0 mm | - | - | - |
* Rain latest hour (hover to see other rain measurements)
** Current wind speed in m/s (hover to see current wind gust speed)